Simultaneous Nadir Overpasses (SNOs) Predictions

Prediction of SNOs between FY3D and TERRA Satellite Orbit:

Table of predicted SNOs for the next 14.0 days since TLE Epoch: 9/3/2022
Index Date (FY3D) Time (FY3D) Lat,Lon (FY3D) SZA (FY3D ) Date (TERRA) Time (TERRA) Lat,Lon (TERRA) SZA (TERRA ) Distance(km) Time Diff (sec)
1 09/03/2022 18:20:06 72.03, -95.32 64.58 09/03/2022 18:21:15 72.04, -95.30 64.60 1.59 69
2 09/03/2022 19:10:49 -71.93, 72.19 115.51 09/03/2022 19:10:45 -71.93, 72.13 115.52 2.11 4
3 09/03/2022 20:01:27 71.50,-119.71 64.08 09/03/2022 20:00:17 71.56,-120.85 64.13 40.67 70
4 09/06/2022 09:47:08 -72.02,-147.03 114.46 09/06/2022 09:48:14 -72.04,-147.08 114.43 3.24 66
5 09/06/2022 10:37:53 71.96, 20.40 65.50 09/06/2022 10:37:41 71.94, 20.39 65.48 2.06 12
6 09/06/2022 11:28:28 -71.44,-171.33 115.01 09/06/2022 11:27:18 -71.45,-172.80 115.00 52.07 70
7 09/09/2022 01:14:12 72.05, 161.17 66.58 09/09/2022 01:15:10 72.04, 161.16 66.56 1.37 58
8 09/09/2022 02:04:56 -71.99, -31.40 113.48 09/09/2022 02:04:39 -71.98, -31.30 113.49 3.32 17
9 09/09/2022 02:55:25 71.11, 137.51 65.66 09/09/2022 02:54:19 71.17, 135.00 65.72 90.65 66
10 09/11/2022 16:41:15 -72.08, 109.38 112.40 09/11/2022 16:42:08 -72.08, 109.46 112.40 2.79 53
11 09/11/2022 17:31:59 71.98, -83.12 67.52 09/11/2022 17:31:35 71.97, -83.09 67.50 1.84 24
12 09/14/2022 08:08:17 72.08, 57.64 68.62 09/14/2022 08:09:03 72.05, 57.66 68.59 3.26 46
13 09/14/2022 08:59:00 -71.96,-134.81 111.50 09/14/2022 08:58:33 -71.94,-134.89 111.51 3.25 27
14 09/16/2022 23:35:19 -72.05, 5.96 110.40 09/16/2022 23:36:01 -72.07, 5.93 110.37 2.53 42
15 09/17/2022 00:26:03 71.96, 173.45 69.53 09/17/2022 00:25:28 71.96, 173.38 69.53 2.41 35



Historial Predications of SNOs between FY3D and TERRA
